Wind_Speed
52 47 46 44 42 40 38 38 38 35 35 34 33 35 35 36 36 38 42 45 45 31 30 28 30 31 32 31 31 32 33 32 33 34 34 35 34 31 30 31 31 34 35
45 43 42 41 39 37 36 36 35 34 34 35 35 38 37 39 37 35 37 36 33 29 28 29 30 32 34 32 33 34 35 36 35 35 36 35 34 31 30 31 32 35 36
43 40 37 36 34 30 29 28 25 24 29 29 30 32 34 34 34 33 33 30 29 27 25 26 28 29 32 34 34 35 34 36 36 35 35 34 31 29 31 33 34 37 38
39 36 35 32 29 26 28 28 24 25 25 25 26 29 32 32 31 28 27 25 28 29 28 30 30 31 31 30 30 30 29 33 34 32 32 32 30 29 31 34 36 39 40
37 34 34 30 29 27 28 29 29 29 31 27 24 24 27 29 26 26 25 27 29 30 31 32 30 31 30 30 29 29 25 28 28 28 29 31 31 31 33 35 38 40 41
36 36 35 30 30 29 29 30 29 31 33 32 29 29 28 26 26 26 26 28 30 31 32 31 31 31 30 31 31 29 27 27 25 26 28 30 32 31 35 36 39 41 43
38 36 35 32 31 29 29 30 30 31 33 33 33 32 30 29 30 28 28 30 33 35 34 34 33 36 37 35 35 33 31 29 30 30 28 30 30 32 35 38 40 42 43
38 36 34 33 33 32 31 31 32 32 34 35 34 35 32 31 31 30 27 29 33 34 34 36 37 37 39 40 41 39 35 32 33 32 31 29 32 35 39 42 43 43 43
39 38 37 36 35 35 34 32 32 34 35 36 37 37 38 34 33 32 31 33 33 34 34 36 37 38 38 38 42 41 37 33 34 34 33 34 36 39 42 43 44 44 46
37 40 42 39 39 37 37 35 34 34 36 38 39 40 40 39 36 35 35 34 38 37 37 36 37 37 38 38 38 38 40 37 37 37 36 35 37 40 43 44 45 46 48
40 44 47 45 42 41 41 40 37 36 36 39 42 43 43 44 40 38 37 37 42 45 43 42 41 42 41 39 40 38 38 38 38 39 37 38 38 40 44 45 46 47 49
45 46 48 49 48 45 43 43 40 38 37 40 43 45 45 45 45 44 40 41 45 48 47 45 45 46 47 43 41 41 40 40 40 42 38 38 39 42 44 46 46 48 50
48 49 49 51 53 51 49 44 43 40 37 40 43 45 46 47 47 48 47 47 50 52 54 52 49 49 50 51 45 41 42 42 40 41 43 39 40 45 46 48 49 51 54
49 50 50 50 52 54 53 50 45 42 39 41 44 45 47 49 48 49 50 53 53 56 59 58 55 54 52 51 50 46 42 44 43 42 45 42 42 47 52 53 54 54 56
52 51 52 53 54 54 52 51 50 46 43 42 44 45 46 49 49 50 52 55 57 59 62 61 60 59 57 55 50 49 47 44 45 44 45 46 47 50 52 53 54 55 56
52 53 54 56 55 54 53 52 51 48 48 48 48 48 48 49 50 52 55 56 59 61 64 65 63 62 62 59 55 51 49 46 45 47 47 50 50 52 54 55 56 57 58
55 54 55 56 56 54 53 52 51 48 47 49 52 53 51 51 52 54 57 58 60 62 65 67 66 66 65 63 58 52 50 48 47 47 49 49 54 57 58 58 59 61 63
58 56 56 56 56 55 53 53 51 49 49 50 54 57 57 55 55 58 60 61 62 63 67 69 69 69 68 67 60 55 51 50 48 48 49 50 50 52 56 59 61 62 63
60 59 58 58 57 57 56 54 52 52 53 55 56 60 61 61 60 61 64 64 65 67 70 73 73 73 71 67 62 58 53 50 49 49 49 50 51 52 54 56 57 58 58
63 62 62 62 62 60 58 57 56 57 57 59 60 61 64 65 66 68 67 67 68 71 73 76 76 76 73 68 63 60 55 51 50 51 50 51 51 53 53 54 53 53 51
65 65 66 66 64 63 63 62 63 63 63 63 64 66 68 69 71 73 73 72 71 73 76 79 80 78 75 70 65 60 57 54 53 52 52 52 53 52 51 51 50 50 52
69 68 68 67 64 65 66 67 67 67 68 68 69 71 72 73 75 76 76 76 76 77 80 82 82 80 77 72 67 62 58 57 56 55 54 54 52 54 54 53 53 55 55
73 71 69 67 67 67 68 69 71 72 72 73 74 76 76 77 79 80 79 79 82 84 87 87 85 82 80 73 68 65 59 58 59 59 56 57 56 52 56 56 56 57 57
78 74 72 71 71 71 73 74 75 76 77 79 80 80 80 81 82 83 82 82 85 89 91 90 89 87 81 74 69 65 60 57 60 57 55 57 59 58 54 54 58 60 60
77 74 72 72 73 74 76 77 78 80 81 84 85 85 86 86 86 85 86 87 89 91 95 90 91 88 82 73 67 64 62 59 58 54 53 56 56 57 62 59 59 61 61
77 77 78 79 80 81 82 83 84 86 88 89 90 91 91 90 89 89 91 93 95 97 95 97 93 87 81 73 66 64 61 57 53 56 53 53 57 61 60 59 59 61 61
Wind_Direction
312 310 309 312 316 318 321 326 327 322 317 315 305 303 308 306 308 302 297 303 306 307 310 308 300 296 293 292 280 280 285 288 288 287 287 289 293 294 287 292 296 300 303
306 307 309 314 318 321 326 329 328 323 322 316 309 303 298 304 303 302 300 304 310 311 310 308 306 302 298 295 289 281 280 284 284 284 284 287 290 291 286 292 297 300 304
304 303 307 314 317 323 325 323 326 329 322 317 312 307 304 307 304 303 299 304 306 312 318 321 319 309 300 296 294 291 285 284 282 283 283 283 289 286 287 292 297 300 303
298 301 304 312 311 316 317 322 325 332 333 331 321 315 315 312 312 307 306 311 309 315 322 321 324 319 313 303 294 290 287 282 285 283 281 283 290 284 289 293 297 300 304
294 297 299 308 308 312 314 320 331 338 337 339 335 335 333 328 325 317 319 318 317 319 319 319 319 316 316 315 312 308 299 285 285 282 283 288 291 283 287 293 298 298 301
288 288 293 302 305 309 312 316 330 337 342 340 338 343 341 339 326 324 324 321 319 311 315 319 315 316 315 315 314 308 305 295 291 293 289 287 290 283 287 292 297 298 302
280 283 289 298 304 308 308 314 321 328 335 340 337 340 341 340 348 347 341 335 325 322 321 317 311 307 307 309 308 308 306 298 296 295 294 291 284 281 283 288 295 299 300
278 282 289 295 298 304 307 309 316 319 325 330 335 335 333 331 337 341 339 345 339 331 323 317 312 307 303 306 306 305 299 297 295 296 297 290 281 280 282 286 294 299 299
279 282 284 292 296 301 303 305 310 313 317 322 328 327 328 328 330 333 334 336 336 334 326 322 320 312 302 296 298 299 299 296 293 296 298 293 284 286 282 289 298 300 300
280 286 287 288 293 299 301 303 302 305 311 314 320 323 323 324 326 331 333 336 338 337 332 329 322 314 308 298 290 293 296 294 293 291 294 293 286 285 284 290 298 301 302
276 280 284 287 289 294 296 299 299 300 303 309 313 317 318 321 322 325 328 333 335 339 335 328 328 325 317 308 297 287 288 292 291 288 291 293 289 285 286 293 298 300 303
273 277 282 285 288 289 289 293 294 297 300 305 306 309 313 316 317 320 326 325 333 337 336 330 324 325 319 310 303 295 286 286 288 288 286 291 291 286 288 295 297 301 305
272 275 280 283 286 286 287 289 291 293 297 301 301 305 308 313 315 317 322 323 327 330 332 329 325 326 319 315 306 297 288 281 283 286 284 286 285 286 291 294 296 300 303
277 280 282 284 284 283 284 286 287 288 292 296 297 302 306 310 311 315 318 320 323 325 327 328 324 324 321 314 308 299 290 281 276 281 284 281 280 284 287 289 293 296 298
279 284 284 285 285 284 282 284 286 287 288 289 293 298 302 305 309 311 314 317 319 322 324 325 323 324 323 315 308 300 292 284 276 272 278 278 278 279 281 285 289 293 297
280 281 282 283 285 283 280 281 282 284 285 289 292 296 299 303 305 308 311 314 317 319 321 323 322 321 321 317 310 301 294 286 280 273 271 275 277 280 283 285 288 291 294
279 282 282 281 282 282 279 278 277 278 283 292 295 296 300 300 304 307 309 312 314 316 319 320 321 320 319 318 310 302 295 288 284 278 273 274 275 278 280 283 287 289 293
281 284 284 281 282 282 279 278 279 281 284 289 291 294 297 299 303 307 308 309 311 313 317 320 320 320 320 318 312 303 297 292 288 282 279 277 278 281 282 283 286 289 292
281 284 285 281 279 278 279 280 281 283 286 288 290 294 296 299 301 303 305 308 310 312 316 318 319 319 319 317 311 305 298 294 290 283 280 281 283 284 286 286 288 290 294
278 282 283 281 280 280 280 280 281 283 285 288 290 291 294 297 300 302 304 306 308 311 315 317 317 317 317 314 310 303 299 296 291 283 279 279 281 284 286 288 289 292 295
278 279 280 277 276 277 278 279 281 284 285 286 288 291 292 294 298 301 304 305 307 310 312 313 314 314 313 312 307 302 298 294 290 284 277 277 278 281 284 286 288 290 293
277 279 278 274 273 273 274 276 278 280 283 286 289 291 292 294 297 300 301 304 306 307 308 311 312 312 311 309 306 300 297 293 289 286 277 273 276 278 279 282 285 288 290
276 277 274 271 270 270 272 273 276 279 282 285 287 289 291 294 297 299 300 302 304 305 307 309 310 309 308 306 303 299 297 290 288 286 279 271 271 276 280 279 281 284 287
276 274 271 271 272 271 272 274 276 279 283 285 287 289 291 294 295 296 298 300 301 303 305 306 307 307 305 303 299 297 293 289 290 285 279 273 270 271 276 281 282 282 285
273 272 272 273 273 275 276 278 280 281 283 284 286 288 290 292 293 295 296 298 300 301 301 303 304 302 302 299 298 294 292 293 289 283 278 271 269 272 272 276 281 284 286
271 272 274 275 276 276 278 279 280 281 283 284 286 288 289 291 292 293 295 296 298 299 300 302 302 300 298 296 294 291 290 289 288 282 280 275 271 272 275 276 278 283 285
Height
10761 10755 10748 10745 10740 10734 10730 10727 10722 10718 10716 10714 10712 10711 10708 10705 10703 10701 10698 10696 10693 10689 10686 10684 10682 10680 10677 10676 10674 10672 10670 10667 10665 10663 10661 10658 10655 10653 10651 10649 10646 10641 10637
10753 10748 10742 10737 10734 10729 10723 10720 10718 10715 10711 10707 10705 10701 10700 10698 10695 10692 10690 10687 10684 10681 10678 10675 10673 10672 10669 10668 10666 10664 10662 10660 10657 10654 10652 10651 10648 10645 10643 10641 10637 10633 10628
10745 10741 10737 10733 10729 10725 10721 10718 10715 10712 10709 10705 10701 10696 10694 10690 10688 10685 10682 10680 10676 10673 10671 10668 10666 10664 10662 10659 10658 10656 10654 10650 10648 10646 10644 10642 10641 10638 10635 10632 10629 10625 10620
10738 10734 10731 10728 10725 10722 10719 10716 10712 10708 10705 10702 10697 10693 10689 10685 10682 10680 10677 10674 10670 10667 10664 10662 10659 10657 10654 10651 10649 10647 10646 10642 10640 10638 10636 10634 10633 10630 10628 10624 10620 10616 10612
10731 10727 10724 10722 10720 10717 10714 10710 10706 10701 10698 10694 10691 10687 10683 10678 10675 10673 10671 10668 10665 10662 10660 10657 10654 10650 10647 10645 10642 10640 10638 10635 10633 10632 10629 10627 10625 10623 10620 10616 10613 10609 10605
10724 10722 10718 10716 10714 10711 10708 10704 10700 10695 10691 10688 10685 10682 10679 10675 10671 10667 10664 10662 10659 10655 10653 10651 10648 10644 10641 10639 10636 10634 10632 10629 10628 10626 10623 10620 10618 10615 10613 10609 10605 10600 10596
10715 10714 10711 10709 10707 10705 10703 10698 10694 10691 10687 10683 10680 10676 10673 10671 10666 10662 10659 10657 10653 10649 10645 10643 10640 10638 10634 10631 10628 10626 10624 10621 10620 10618 10616 10613 10611 10608 10605 10602 10599 10595 10589
10705 10705 10704 10701 10699 10699 10697 10694 10690 10686 10683 10679 10676 10673 10669 10666 10662 10658 10656 10653 10648 10643 10639 10636 10632 10629 10625 10622 10619 10617 10615 10613 10611 10608 10606 10604 10602 10600 10597 10594 10591 10587 10582
10695 10695 10697 10694 10692 10691 10691 10689 10685 10680 10677 10674 10670 10667 10665 10661 10657 10654 10651 10649 10644 10639 10634 10629 10625 10620 10617 10614 10611 10608 10605 10603 10601 10599 10596 10594 10591 10588 10585 10582 10578 10574 10570
10688 10683 10683 10687 10683 10684 10683 10682 10680 10677 10672 10668 10665 10660 10657 10654 10651 10647 10644 10641 10637 10632 10627 10623 10617 10613 10608 10604 10601 10598 10596 10593 10590 10588 10585 10583 10580 10577 10574 10571 10566 10562 10557
10680 10677 10673 10675 10677 10675 10673 10672 10672 10669 10667 10662 10657 10653 10648 10644 10641 10639 10636 10633 10628 10623 10618 10614 10609 10603 10598 10595 10590 10587 10585 10583 10580 10577 10574 10571 10569 10566 10563 10559 10555 10550 10546
10670 10670 10666 10664 10665 10666 10666 10664 10663 10661 10660 10655 10650 10646 10641 10636 10632 10630 10628 10625 10621 10616 10610 10605 10600 10594 10589 10584 10579 10576 10574 10572 10570 10567 10563 10560 10557 10554 10550 10547 10543 10539 10534
10658 10658 10659 10656 10653 10652 10653 10656 10653 10652 10651 10647 10642 10638 10633 10628 10623 10618 10615 10614 10610 10606 10602 10596 10591 10586 10579 10571 10567 10564 10562 10559 10558 10556 10553 10549 10545 10542 10538 10534 10530 10526 10520
10648 10647 10646 10645 10644 10641 10640 10641 10643 10642 10641 10638 10632 10628 10624 10619 10615 10611 10606 10603 10599 10595 10590 10585 10580 10575 10569 10561 10555 10551 10548 10547 10545 10543 10541 10538 10535 10531 10527 10522 10518 10514 10508
10636 10635 10633 10631 10629 10628 10629 10628 10628 10628 10628 10628 10624 10620 10616 10611 10607 10602 10597 10592 10588 10584 10578 10573 10567 10561 10555 10549 10542 10537 10534 10532 10530 10529 10528 10526 10523 10519 10515 10511 10507 10502 10497
10625 10623 10620 10617 10617 10615 10615 10616 10615 10616 10615 10613 10612 10610 10608 10604 10599 10593 10588 10583 10578 10572 10567 10561 10556 10549 10543 10536 10529 10523 10521 10517 10515 10514 10513 10512 10509 10506 10502 10499 10494 10490 10485
10611 10611 10607 10604 10603 10604 10603 10603 10603 10604 10604 10600 10596 10595 10596 10593 10588 10583 10578 10573 10568 10563 10557 10551 10545 10537 10530 10522 10515 10510 10506 10502 10500 10498 10497 10497 10495 10492 10489 10485 10481 10475 10471
10596 10597 10595 10592 10590 10589 10589 10589 10590 10591 10591 10589 10584 10581 10580 10579 10576 10572 10566 10561 10557 10551 10545 10539 10532 10524 10517 10508 10501 10496 10492 10488 10486 10483 10482 10481 10480 10477 10475 10470 10467 10462 10457
10580 10579 10579 10579 10578 10578 10576 10577 10577 10577 10576 10574 10572 10565 10563 10562 10562 10559 10552 10547 10543 10537 10531 10524 10517 10510 10503 10495 10487 10482 10478 10474 10471 10469 10468 10467 10465 10463 10460 10457 10453 10448 10444
10568 10566 10564 10563 10562 10563 10563 10562 10562 10561 10561 10559 10557 10554 10549 10546 10544 10542 10539 10533 10527 10520 10515 10508 10502 10496 10490 10483 10474 10468 10463 10460 10457 10454 10454 10453 10450 10448 10445 10443 10439 10435 10431
10552 10552 10552 10550 10550 10549 10548 10546 10544 10545 10544 10543 10540 10538 10535 10533 10528 10523 10519 10516 10512 10506 10499 10493 10488 10482 10475 10468 10461 10454 10449 10446 10443 10440 10439 10437 10436 10434 10431 10429 10426 10423 10419
10537 10537 10537 10537 10536 10535 10533 10531 10530 10528 10526 10525 10524 10521 10518 10515 10511 10507 10501 10496 10493 10489 10484 10479 10472 10465 10458 10452 10445 10439 10435 10432 10427 10425 10424 10422 10421 10420 10417 10415 10412 10408 10404
10520 10520 10519 10519 10519 10518 10517 10515 10512 10511 10509 10508 10507 10503 10500 10497 10492 10488 10484 10479 10473 10467 10463 10458 10453 10448 10442 10435 10428 10423 10420 10416 10411 10409 10408 10407 10406 10405 10402 10400 10397 10394 10389
10500 10499 10500 10500 10500 10499 10498 10497 10496 10494 10491 10488 10487 10484 10481 10479 10475 10470 10465 10461 10455 10448 10442 10438 10431 10427 10423 10417 10412 10407 10404 10400 10395 10391 10391 10390 10390 10389 10387 10385 10382 10378 10375
10479 10477 10478 10479 10479 10478 10477 10476 10475 10474 10471 10468 10465 10463 10461 10459 10455 10449 10444 10440 10435 10430 10421 10423 10414 10407 10403 10399 10394 10390 10387 10383 10378 10374 10374 10374 10374 10373 10371 10371 10368 10364 10362
10456 10457 10457 10457 10456 10455 10455 10456 10455 10452 10449 10445 10442 10440 10438 10435 10432 10428 10423 10418 10412 10407 10406 10395 10390 10386 10382 10379 10376 10372 10369 10368 10362 10357 10359 10358 10358 10357 10357 10356 10354 10351 10347